TimeAKST,TemperatureF,Dew PointF,Humidity,Sea Level PressureIn,VisibilityMPH,Wind Direction,Wind SpeedMPH,Gust SpeedMPH,PrecipitationIn,Events,Conditions,WindDirDegrees,DateUTC
12:55 AM,-31.2,-9999,N/A,30.06,10.0,Calm,Calm,-,N/A,,Clear,0,2012-11-17 09:55:00
1:55 AM,-31.4,-9999,N/A,30.04,10.0,South,4.6,-,N/A,,Clear,180,2012-11-17 10:55:00
2:55 AM,-31.0,-9999,N/A,30.02,10.0,Calm,Calm,-,0.00,,Clear,0,2012-11-17 11:55:00
3:55 AM,-34.1,-9999,N/A,29.99,10.0,Calm,Calm,-,N/A,,Clear,0,2012-11-17 12:55:00
4:55 AM,-31.7,-9999,N/A,29.97,10.0,Calm,Calm,-,N/A,,Clear,0,2012-11-17 13:55:00
5:55 AM,-32.8,-9999,N/A,29.96,10.0,South,3.5,-,N/A,,Clear,170,2012-11-17 14:55:00
6:55 AM,-34.2,-9999,N/A,29.94,10.0,Calm,Calm,-,N/A,,Clear,0,2012-11-17 15:55:00
7:55 AM,-30.5,-9999,N/A,29.92,10.0,Calm,Calm,-,N/A,,Clear,0,2012-11-17 16:55:00
8:55 AM,-32.8,-9999,N/A,29.90,10.0,Calm,Calm,-,N/A,,Clear,0,2012-11-17 17:55:00
9:55 AM,-30.8,-9999,N/A,29.90,10.0,Calm,Calm,-,N/A,,Partly Cloudy,0,2012-11-17 18:55:00
10:55 AM,-25.6,-29.9,80,29.86,10.0,NNE,4.6,-,N/A,,Partly Cloudy,20,2012-11-17 19:55:00
11:55 AM,-10.5,-15.5,78,29.83,10.0,NE,4.6,-,N/A,,Mostly Cloudy,50,2012-11-17 20:55:00
12:55 PM,-11.0,-16.4,77,29.80,10.0,NE,5.8,-,N/A,,Clear,40,2012-11-17 21:55:00
1:55 PM,-2.6,-13.7,59,29.77,10.0,NE,8.1,-,0.00,,Clear,40,2012-11-17 22:55:00
2:55 PM,-2.6,-15.9,53,29.75,10.0,NE,10.4,-,N/A,,Clear,50,2012-11-17 23:55:00
3:55 PM,-3.5,-17.1,52,29.74,10.0,NE,5.8,-,N/A,,Clear,40,2012-11-18 00:55:00
4:55 PM,-4.4,-17.5,53,29.72,10.0,NE,8.1,-,N/A,,Clear,40,2012-11-18 01:55:00
5:55 PM,-4.4,-17.7,53,29.70,10.0,NNE,10.4,-,N/A,,Clear,20,2012-11-18 02:55:00
6:55 PM,-4.7,-17.5,54,29.70,10.0,NNE,11.5,-,N/A,,Clear,30,2012-11-18 03:55:00
7:55 PM,-5.1,-17.3,56,29.69,10.0,NNE,9.2,-,N/A,,Clear,20,2012-11-18 04:55:00
8:55 PM,-3.5,-16.4,54,29.68,10.0,NE,6.9,-,N/A,,Clear,50,2012-11-18 05:55:00
9:55 PM,-2.9,-16.1,54,29.68,10.0,NNE,4.6,-,N/A,,Clear,30,2012-11-18 06:55:00
10:55 PM,-2.4,-15.7,53,29.67,10.0,NE,9.2,-,N/A,,Mostly Cloudy,40,2012-11-18 07:55:00
11:55 PM,-2.6,-15.7,54,29.67,10.0,NE,9.2,-,N/A,,Clear,40,2012-11-18 08:55:00